Time,TemperatureF,DewpointF,PressureIn,WindDirection,WindDirectionDegrees,WindSpeedMPH,WindSpeedGustMPH,Humidity,HourlyPrecipIn,Conditions,Clouds,dailyrainin,SolarRadiationWatts/m^2,SoftwareType,DateUTC
2013-05-04 00:00:00,63.5,51.1,29.94,SSE,162,9.0,9.0,64,0.00,,,0.01,0,Wunderground v.1.15,2013-05-04 04:00:00,
2013-05-04 00:10:00,63.4,51.0,29.94,South,181,9.0,17.0,64,0.00,,,0.01,0,Wunderground v.1.15,2013-05-04 04:10:00,
2013-05-04 00:20:00,63.2,50.8,29.94,SSE,160,8.0,17.0,64,0.00,,,0.01,0,Wunderground v.1.15,2013-05-04 04:20:00,
2013-05-04 00:30:00,63.1,51.1,29.93,South,173,7.0,17.0,65,0.00,,,0.00,0,Wunderground v.1.15,2013-05-04 04:30:00,
2013-05-04 00:40:00,63.1,51.1,29.93,SSE,156,8.0,8.0,65,0.00,,,0.00,0,Wunderground v.1.15,2013-05-04 04:40:00,
2013-05-04 00:50:00,63.1,51.1,29.93,SSW,193,7.0,7.0,65,0.00,,,0.00,0,Wunderground v.1.15,2013-05-04 04:50:00,
2013-05-04 01:00:00,62.9,51.0,29.93,SSE,159,6.0,6.0,65,0.00,,,0.00,0,Wunderground v.1.15,2013-05-04 05:00:00,
2013-05-04 01:10:00,62.9,51.4,29.92,SE,142,10.0,10.0,66,0.00,,,0.00,0,Wunderground v.1.15,2013-05-04 05:10:00,
2013-05-04 01:20:00,61.5,52.4,29.92,SSE,167,9.0,9.0,72,0.00,,,0.01,0,Wunderground v.1.15,2013-05-04 05:20:00,
2013-05-04 01:30:00,60.7,51.6,29.92,South,169,7.0,18.0,72,0.00,,,0.01,0,Wunderground v.1.15,2013-05-04 05:30:00,
2013-05-04 01:40:00,60.5,51.8,29.90,SE,146,7.0,7.0,73,0.00,,,0.01,0,Wunderground v.1.15,2013-05-04 05:40:00,
2013-05-04 01:50:00,60.2,51.9,29.90,SE,135,8.0,11.0,74,0.00,,,0.02,0,Wunderground v.1.15,2013-05-04 05:50:00,
2013-05-04 02:00:00,59.8,52.2,29.90,SSE,152,7.0,7.0,76,0.00,,,0.02,0,Wunderground v.1.15,2013-05-04 06:00:00,
2013-05-04 02:10:00,59.2,52.3,29.90,SSE,163,5.0,22.0,78,0.04,,,0.03,0,Wunderground v.1.15,2013-05-04 06:10:00,
2013-05-04 02:20:00,59.0,52.8,29.90,South,184,3.0,3.0,80,0.00,,,0.04,0,Wunderground v.1.15,2013-05-04 06:20:00,
2013-05-04 02:30:00,58.7,53.2,29.89,South,184,1.0,1.0,82,0.08,,,0.05,0,Wunderground v.1.15,2013-05-04 06:30:00,
2013-05-04 02:40:00,58.3,53.8,29.89,South,184,1.0,3.0,85,0.11,,,0.07,0,Wunderground v.1.15,2013-05-04 06:40:00,
2013-05-04 02:50:00,57.8,53.6,29.89,South,184,1.0,1.0,86,0.05,,,0.08,0,Wunderground v.1.15,2013-05-04 06:50:00,
2013-05-04 03:00:00,57.6,54.1,29.88,South,184,0.0,0.0,88,0.10,,,0.09,0,Wunderground v.1.15,2013-05-04 07:00:00,
2013-05-04 03:10:00,57.3,54.1,29.87,South,184,0.0,17.0,89,0.04,,,0.09,0,Wunderground v.1.15,2013-05-04 07:10:00,
2013-05-04 03:21:00,57.0,54.4,29.87,South,184,0.0,17.0,91,0.00,,,0.10,0,Wunderground v.1.15,2013-05-04 07:21:00,
2013-05-04 03:30:00,56.9,54.3,29.86,South,184,0.0,17.0,91,0.00,,,0.10,0,Wunderground v.1.15,2013-05-04 07:30:00,
2013-05-04 03:40:00,56.7,54.4,29.86,South,184,0.0,0.0,92,0.00,,,0.10,0,Wunderground v.1.15,2013-05-04 07:40:00,
2013-05-04 03:50:00,56.7,54.4,29.86,South,184,1.0,2.0,92,0.00,,,0.11,0,Wunderground v.1.15,2013-05-04 07:50:00,
2013-05-04 04:00:00,56.7,54.4,29.86,South,184,0.0,0.0,92,0.00,,,0.11,0,Wunderground v.1.15,2013-05-04 08:00:00,
2013-05-04 04:10:00,56.7,54.7,29.86,South,184,0.0,5.0,93,0.00,,,0.11,0,Wunderground v.1.15,2013-05-04 08:10:00,
2013-05-04 04:20:00,56.9,54.9,29.86,South,184,1.0,1.0,93,0.00,,,0.11,0,Wunderground v.1.15,2013-05-04 08:20:00,
2013-05-04 04:30:00,57.0,55.0,29.86,South,184,0.0,5.0,93,0.00,,,0.11,0,Wunderground v.1.15,2013-05-04 08:30:00,
2013-05-04 04:40:00,57.0,55.3,29.86,South,184,0.0,0.0,94,0.00,,,0.11,0,Wunderground v.1.15,2013-05-04 08:40:00,
2013-05-04 04:50:00,56.7,54.7,29.86,SSE,153,1.0,1.0,93,0.00,,,0.11,0,Wunderground v.1.15,2013-05-04 08:50:00,
2013-05-04 05:00:00,56.3,54.3,29.86,SSE,153,0.0,5.0,93,0.00,,,0.11,0,Wunderground v.1.15,2013-05-04 09:00:00,
2013-05-04 05:10:00,56.2,53.3,29.86,SSE,147,3.0,4.0,90,0.00,,,0.11,0,Wunderground v.1.15,2013-05-04 09:10:00,
2013-05-04 05:20:00,56.6,53.4,29.86,SSE,161,2.0,3.0,89,0.00,,,0.12,0,Wunderground v.1.15,2013-05-04 09:20:00,
2013-05-04 05:30:00,56.3,53.1,29.86,SE,146,2.0,4.0,89,0.14,,,0.14,0,Wunderground v.1.15,2013-05-04 09:30:00,
2013-05-04 05:40:00,56.2,52.1,29.86,South,170,5.0,11.0,86,0.05,,,0.14,0,Wunderground v.1.15,2013-05-04 09:40:00,
2013-05-04 05:51:00,56.3,51.8,29.86,SSW,196,6.0,6.0,85,0.00,,,0.15,0,Wunderground v.1.15,2013-05-04 09:51:00,
2013-05-04 06:00:00,56.3,52.5,29.88,South,180,5.0,8.0,87,0.17,,,0.17,0,Wunderground v.1.15,2013-05-04 10:00:00,
2013-05-04 06:10:00,55.9,52.4,29.89,SW,223,5.0,5.0,88,0.08,,,0.18,0,Wunderground v.1.15,2013-05-04 10:10:00,
2013-05-04 06:20:00,55.4,52.2,29.89,SW,217,5.0,9.0,89,0.05,,,0.19,0,Wunderground v.1.15,2013-05-04 10:20:00,
2013-05-04 06:30:00,54.8,51.3,29.89,South,175,6.0,6.0,88,0.21,,,0.22,0,Wunderground v.1.15,2013-05-04 10:30:00,
2013-05-04 06:40:00,54.5,51.3,29.90,SSW,200,4.0,4.0,89,0.18,,,0.26,0,Wunderground v.1.15,2013-05-04 10:40:00,
2013-05-04 06:50:00,54.2,51.3,29.90,South,173,4.0,4.0,90,0.14,,,0.29,0,Wunderground v.1.15,2013-05-04 10:50:00,
2013-05-04 07:00:00,53.6,50.7,29.90,South,178,5.0,5.0,90,0.18,,,0.31,0,Wunderground v.1.15,2013-05-04 11:00:00,
2013-05-04 07:10:00,53.3,50.7,29.90,SSE,163,4.0,16.0,91,0.06,,,0.33,0,Wunderground v.1.15,2013-05-04 11:10:00,
2013-05-04 07:20:00,53.1,50.8,29.90,SSE,147,3.0,3.0,92,0.05,,,0.33,7,Wunderground v.1.15,2013-05-04 11:20:00,
2013-05-04 07:30:00,52.9,50.6,29.89,SSE,150,1.0,1.0,92,0.00,,,0.33,12,Wunderground v.1.15,2013-05-04 11:30:00,
2013-05-04 07:40:00,52.9,50.6,29.90,SSE,150,0.0,0.0,92,0.00,,,0.33,7,Wunderground v.1.15,2013-05-04 11:40:00,
2013-05-04 07:51:00,53.1,51.1,29.90,SSE,150,0.0,0.0,93,0.00,,,0.33,5,Wunderground v.1.15,2013-05-04 11:51:00,
2013-05-04 08:00:00,52.9,50.9,29.91,SSE,150,0.0,0.0,93,0.00,,,0.34,5,Wunderground v.1.15,2013-05-04 12:00:00,
2013-05-04 08:10:00,52.9,50.9,29.90,SSE,150,0.0,10.0,93,0.00,,,0.34,7,Wunderground v.1.15,2013-05-04 12:10:00,
2013-05-04 08:20:00,52.9,50.9,29.90,SSE,150,0.0,10.0,93,0.00,,,0.34,11,Wunderground v.1.15,2013-05-04 12:20:00,
2013-05-04 08:30:00,52.9,50.9,29.90,SSE,150,0.0,10.0,93,0.18,,,0.36,9,Wunderground v.1.15,2013-05-04 12:30:00,
2013-05-04 08:40:00,52.8,50.8,29.89,SSE,150,0.0,0.0,93,0.21,,,0.38,14,Wunderground v.1.15,2013-05-04 12:40:00,
2013-05-04 08:50:00,52.8,51.1,29.89,SSE,150,0.0,0.0,94,0.08,,,0.39,14,Wunderground v.1.15,2013-05-04 12:50:00,
2013-05-04 09:00:00,52.9,51.2,29.88,SSE,150,0.0,0.0,94,0.04,,,0.39,25,Wunderground v.1.15,2013-05-04 13:00:00,
2013-05-04 09:10:00,52.9,51.2,29.88,SSE,150,0.0,4.0,94,0.00,,,0.39,11,Wunderground v.1.15,2013-05-04 13:10:00,
2013-05-04 09:20:00,52.8,51.1,29.88,SSE,150,0.0,4.0,94,0.00,,,0.40,14,Wunderground v.1.15,2013-05-04 13:20:00,
2013-05-04 09:30:00,52.9,51.5,29.89,SSE,150,0.0,4.0,95,0.04,,,0.41,28,Wunderground v.1.15,2013-05-04 13:30:00,
2013-05-04 09:40:00,52.9,51.5,29.89,SSE,150,0.0,0.0,95,0.06,,,0.42,33,Wunderground v.1.15,2013-05-04 13:40:00,
2013-05-04 09:50:00,53.1,51.7,29.89,SSE,150,0.0,0.0,95,0.13,,,0.44,23,Wunderground v.1.15,2013-05-04 13:50:00,
2013-05-04 10:00:00,52.9,51.5,29.90,SSE,150,0.0,0.0,95,0.11,,,0.45,9,Wunderground v.1.15,2013-05-04 14:00:00,
2013-05-04 10:10:00,52.8,51.4,29.91,SSE,150,1.0,1.0,95,0.15,,,0.48,14,Wunderground v.1.15,2013-05-04 14:10:00,
2013-05-04 10:21:00,52.6,51.2,29.91,SW,234,2.0,2.0,95,0.14,,,0.51,28,Wunderground v.1.15,2013-05-04 14:21:00,
2013-05-04 10:30:00,52.6,51.2,29.91,SW,234,1.0,1.0,95,0.21,,,0.54,33,Wunderground v.1.15,2013-05-04 14:30:00,
2013-05-04 10:40:00,52.9,51.5,29.88,SW,234,0.0,0.0,95,0.17,,,0.58,23,Wunderground v.1.15,2013-05-04 14:40:00,
2013-05-04 10:50:00,52.9,51.8,29.88,SW,234,0.0,0.0,96,0.20,,,0.60,39,Wunderground v.1.15,2013-05-04 14:50:00,
2013-05-04 11:00:00,52.9,51.8,29.89,SW,234,0.0,0.0,96,0.11,,,0.62,25,Wunderground v.1.15,2013-05-04 15:00:00,
2013-05-04 11:10:00,52.9,51.8,29.90,SW,234,0.0,7.0,96,0.04,,,0.62,25,Wunderground v.1.15,2013-05-04 15:10:00,
2013-05-04 11:20:00,53.1,52.0,29.90,SW,234,1.0,7.0,96,0.00,,,0.63,21,Wunderground v.1.15,2013-05-04 15:20:00,
2013-05-04 11:30:00,53.1,52.0,29.91,NNW,342,1.0,1.0,96,0.20,,,0.66,19,Wunderground v.1.15,2013-05-04 15:30:00,
2013-05-04 11:40:00,52.9,51.8,29.91,SW,229,1.0,1.0,96,0.17,,,0.69,16,Wunderground v.1.15,2013-05-04 15:40:00,
2013-05-04 11:50:00,52.8,51.7,29.91,SW,229,0.0,1.0,96,0.26,,,0.72,33,Wunderground v.1.15,2013-05-04 15:50:00,
2013-05-04 12:00:00,52.8,51.7,29.91,NNW,333,2.0,2.0,96,0.23,,,0.76,35,Wunderground v.1.15,2013-05-04 16:00:00,
2013-05-04 12:10:00,52.8,51.7,29.92,NNW,333,2.0,4.0,96,0.15,,,0.78,37,Wunderground v.1.15,2013-05-04 16:10:00,
2013-05-04 12:21:00,52.9,51.8,29.92,NNW,340,1.0,1.0,96,0.27,,,0.82,28,Wunderground v.1.15,2013-05-04 16:21:00,
2013-05-04 12:30:00,53.1,52.0,29.91,NNW,340,1.0,1.0,96,0.31,,,0.85,14,Wunderground v.1.15,2013-05-04 16:30:00,
2013-05-04 12:40:00,53.1,52.0,29.91,NNW,340,2.0,2.0,96,0.27,,,0.90,14,Wunderground v.1.15,2013-05-04 16:40:00,
2013-05-04 12:50:00,53.1,52.0,29.91,NW,317,2.0,2.0,96,0.22,,,0.95,16,Wunderground v.1.15,2013-05-04 16:50:00,
2013-05-04 13:00:00,52.9,51.8,29.91,NNW,340,2.0,3.0,96,0.20,,,0.98,12,Wunderground v.1.15,2013-05-04 17:00:00,
2013-05-04 13:10:00,52.8,51.7,29.92,WNW,294,1.0,1.0,96,0.15,,,1.01,19,Wunderground v.1.15,2013-05-04 17:10:00,
2013-05-04 13:40:00,53.1,52.0,29.92,North,355,0.0,0.0,96,0.18,,,1.12,95,Wunderground v.1.15,2013-05-04 17:40:00,
2013-05-04 14:00:00,53.1,52.0,29.91,North,355,0.0,0.0,96,0.11,,,1.15,30,Wunderground v.1.15,2013-05-04 18:00:00,
2013-05-04 14:10:00,53.1,52.0,29.92,North,355,0.0,7.0,96,0.09,,,1.17,58,Wunderground v.1.15,2013-05-04 18:10:00,
2013-05-04 14:20:00,53.3,52.5,29.92,North,355,0.0,7.0,97,0.10,,,1.19,91,Wunderground v.1.15,2013-05-04 18:20:00,
2013-05-04 14:30:00,53.3,52.2,29.91,SW,228,0.0,7.0,96,0.08,,,1.20,53,Wunderground v.1.15,2013-05-04 18:30:00,
2013-05-04 14:40:00,53.3,52.2,29.92,SW,229,1.0,5.0,96,0.05,,,1.21,33,Wunderground v.1.15,2013-05-04 18:40:00,
2013-05-04 14:50:00,53.3,52.5,29.92,SW,235,1.0,1.0,97,0.08,,,1.23,30,Wunderground v.1.15,2013-05-04 18:50:00,
2013-05-04 15:00:00,53.2,52.1,29.93,SW,229,2.0,2.0,96,0.09,,,1.24,39,Wunderground v.1.15,2013-05-04 19:00:00,
2013-05-04 15:10:00,53.1,52.0,29.93,SW,220,1.0,1.0,96,0.10,,,1.26,39,Wunderground v.1.15,2013-05-04 19:10:00,
2013-05-04 15:20:00,52.9,51.8,29.93,SW,220,0.0,5.0,96,0.08,,,1.28,21,Wunderground v.1.15,2013-05-04 19:20:00,
2013-05-04 15:30:00,53.1,52.3,29.92,SW,220,0.0,5.0,97,0.17,,,1.30,26,Wunderground v.1.15,2013-05-04 19:30:00,
2013-05-04 15:40:00,53.1,52.0,29.89,SW,220,0.0,0.0,96,0.23,,,1.33,18,Wunderground v.1.15,2013-05-04 19:40:00,
2013-05-04 15:50:00,52.8,51.7,29.89,SW,220,0.0,0.0,96,0.25,,,1.37,28,Wunderground v.1.15,2013-05-04 19:50:00,
2013-05-04 16:00:00,52.8,52.0,29.90,SW,220,0.0,0.0,97,0.20,,,1.40,25,Wunderground v.1.15,2013-05-04 20:00:00,
2013-05-04 16:10:00,52.8,52.0,29.90,SW,220,0.0,7.0,97,0.27,,,1.44,18,Wunderground v.1.15,2013-05-04 20:10:00,
2013-05-04 16:20:00,52.8,52.0,29.90,SW,220,0.0,7.0,97,0.15,,,1.47,62,Wunderground v.1.15,2013-05-04 20:20:00,
2013-05-04 16:30:00,52.9,52.1,29.90,SW,220,0.0,7.0,97,0.10,,,1.48,47,Wunderground v.1.15,2013-05-04 20:30:00,
2013-05-04 16:40:00,53.1,52.3,29.90,SW,220,0.0,0.0,97,0.04,,,1.49,19,Wunderground v.1.15,2013-05-04 20:40:00,
2013-05-04 17:00:00,52.5,51.7,29.89,SW,220,0.0,0.0,97,0.22,,,1.53,14,Wunderground v.1.15,2013-05-04 21:00:00,
2013-05-04 17:10:00,52.5,51.7,29.89,SW,220,0.0,3.0,97,0.23,,,1.56,12,Wunderground v.1.15,2013-05-04 21:10:00,
2013-05-04 17:20:00,52.8,52.0,29.89,SW,220,0.0,3.0,97,0.07,,,1.57,42,Wunderground v.1.15,2013-05-04 21:20:00,
2013-05-04 17:30:00,52.8,52.0,29.89,SW,220,0.0,3.0,97,0.08,,,1.58,35,Wunderground v.1.15,2013-05-04 21:30:00,
2013-05-04 17:40:00,52.8,52.0,29.90,SW,220,0.0,0.0,97,0.10,,,1.60,56,Wunderground v.1.15,2013-05-04 21:40:00,
2013-05-04 17:50:00,52.8,52.0,29.90,SW,220,0.0,0.0,97,0.12,,,1.62,35,Wunderground v.1.15,2013-05-04 21:50:00,
2013-05-04 18:00:00,52.6,51.8,29.89,SW,220,0.0,0.0,97,0.06,,,1.63,16,Wunderground v.1.15,2013-05-04 22:00:00,
2013-05-04 18:10:00,52.6,51.8,29.89,SW,220,0.0,3.0,97,0.07,,,1.64,28,Wunderground v.1.15,2013-05-04 22:10:00,
2013-05-04 18:20:00,52.5,51.7,29.89,SW,220,0.0,3.0,97,0.08,,,1.65,21,Wunderground v.1.15,2013-05-04 22:20:00,
2013-05-04 18:30:00,52.8,52.0,29.90,SW,220,0.0,3.0,97,0.13,,,1.67,33,Wunderground v.1.15,2013-05-04 22:30:00,
2013-05-04 18:40:00,52.9,52.1,29.89,North,5,0.0,0.0,97,0.11,,,1.68,21,Wunderground v.1.15,2013-05-04 22:40:00,
2013-05-04 18:50:00,53.1,52.3,29.89,North,5,0.0,0.0,97,0.05,,,1.69,25,Wunderground v.1.15,2013-05-04 22:50:00,
2013-05-04 19:00:00,53.1,52.3,29.89,North,5,0.0,0.0,97,0.06,,,1.70,23,Wunderground v.1.15,2013-05-04 23:00:00,
2013-05-04 19:10:00,53.1,52.3,29.88,North,5,0.0,3.0,97,0.04,,,1.70,14,Wunderground v.1.15,2013-05-04 23:10:00,
2013-05-04 19:20:00,53.1,52.3,29.88,North,5,1.0,1.0,97,0.04,,,1.71,11,Wunderground v.1.15,2013-05-04 23:20:00,
2013-05-04 19:30:00,53.1,52.3,29.89,North,5,0.0,3.0,97,0.22,,,1.73,9,Wunderground v.1.15,2013-05-04 23:30:00,
2013-05-04 19:40:00,53.1,52.3,29.89,North,355,2.0,2.0,97,0.13,,,1.76,7,Wunderground v.1.15,2013-05-04 23:40:00,
2013-05-04 19:50:00,52.9,52.1,29.89,North,350,2.0,2.0,97,0.13,,,1.79,5,Wunderground v.1.15,2013-05-04 23:50:00,
2013-05-04 20:00:00,52.9,52.1,29.89,North,350,0.0,0.0,97,0.17,,,1.82,5,Wunderground v.1.15,2013-05-05 00:00:00,
2013-05-04 20:10:00,52.8,52.0,29.89,North,350,0.0,3.0,97,0.09,,,1.83,0,Wunderground v.1.15,2013-05-05 00:10:00,
2013-05-04 20:20:00,52.9,52.1,29.89,North,350,1.0,1.0,97,0.07,,,1.84,0,Wunderground v.1.15,2013-05-05 00:20:00,
2013-05-04 20:30:00,52.9,52.1,29.89,North,350,0.0,3.0,97,0.15,,,1.86,0,Wunderground v.1.15,2013-05-05 00:30:00,
2013-05-04 20:40:00,52.9,52.1,29.89,North,360,1.0,1.0,97,0.09,,,1.87,0,Wunderground v.1.15,2013-05-05 00:40:00,
2013-05-04 20:50:00,52.8,52.0,29.89,North,360,0.0,0.0,97,0.09,,,1.89,0,Wunderground v.1.15,2013-05-05 00:50:00,
2013-05-04 21:00:00,52.9,52.1,29.89,North,360,0.0,0.0,97,0.07,,,1.90,0,Wunderground v.1.15,2013-05-05 01:00:00,
2013-05-04 21:10:00,52.8,52.0,29.89,North,355,1.0,1.0,97,0.09,,,1.92,0,Wunderground v.1.15,2013-05-05 01:10:00,
2013-05-04 21:20:00,52.8,52.0,29.89,North,355,1.0,1.0,97,0.10,,,1.94,0,Wunderground v.1.15,2013-05-05 01:20:00,
2013-05-04 21:30:00,52.8,52.0,29.89,North,355,1.0,5.0,97,0.14,,,1.96,0,Wunderground v.1.15,2013-05-05 01:30:00,
2013-05-04 21:40:00,52.8,52.0,29.89,NW,319,1.0,1.0,97,0.17,,,1.98,0,Wunderground v.1.15,2013-05-05 01:40:00,
2013-05-04 21:50:00,52.9,52.1,29.89,NW,324,1.0,4.0,97,0.22,,,2.01,0,Wunderground v.1.15,2013-05-05 01:50:00,
2013-05-04 22:00:00,52.9,52.1,29.89,NW,325,2.0,2.0,97,0.14,,,2.03,0,Wunderground v.1.15,2013-05-05 02:00:00,
2013-05-04 22:10:00,52.9,52.1,29.89,NW,325,0.0,5.0,97,0.25,,,2.06,0,Wunderground v.1.15,2013-05-05 02:10:00,
2013-05-04 22:20:00,52.9,52.1,29.89,NW,325,0.0,5.0,97,0.12,,,2.09,0,Wunderground v.1.15,2013-05-05 02:20:00,
2013-05-04 22:30:00,52.9,52.1,29.90,NNW,347,1.0,5.0,97,0.18,,,2.12,0,Wunderground v.1.15,2013-05-05 02:30:00,
2013-05-04 22:40:00,52.9,52.1,29.90,NW,319,1.0,1.0,97,0.17,,,2.15,0,Wunderground v.1.15,2013-05-05 02:40:00,
2013-05-04 22:50:00,52.0,51.2,29.90,WNW,298,0.0,3.0,97,0.09,,,2.17,0,Wunderground v.1.15,2013-05-05 02:50:00,
2013-05-04 23:00:00,51.4,50.6,29.90,WSW,257,1.0,4.0,97,0.09,,,2.18,0,Wunderground v.1.15,2013-05-05 03:00:00,
2013-05-04 23:10:00,50.8,50.0,29.89,WSW,254,1.0,1.0,97,0.11,,,2.20,0,Wunderground v.1.15,2013-05-05 03:10:00,
2013-05-04 23:20:00,50.5,49.7,29.89,West,278,1.0,1.0,97,0.07,,,2.21,0,Wunderground v.1.15,2013-05-05 03:20:00,
2013-05-04 23:30:00,50.2,49.4,29.89,NW,319,1.0,1.0,97,0.16,,,2.23,0,Wunderground v.1.15,2013-05-05 03:30:00,
2013-05-04 23:40:00,49.9,49.1,29.89,WSW,244,2.0,2.0,97,0.11,,,2.25,0,Wunderground v.1.15,2013-05-05 03:40:00,
2013-05-04 23:50:00,49.6,48.8,29.89,WNW,287,1.0,4.0,97,0.08,,,2.26,0,Wunderground v.1.15,2013-05-05 03:50:00,